Regional Weather Roundup
Issued by NWS Bismarck, ND

Home | Current Version | Previous Version | Text Only | Print | Product List | Glossary On
Versions: 1 2 3 4 5 6 7 8 9 10 11 12 13 14 15 16 17 18 19 20 21 22 23 24 25 26 27 28 29 30 31 32 33 34 35 36 37 38 39 40 41 42 43 44 45 46 47 48 49 50
000
ASUS43 KBIS 240210
RWRBIS

NWR BROADCAST TEXT
NATIONAL WEATHER SERVICE BISMARCK ND
900 PM CDT SAT SEP 23 2017

NOTE: "FAIR" INDICATES FEW OR NO CLOUDS BELOW 12,000 FEET WITH NO
SIGNIFICANT WEATHER AND/OR OBSTRUCTIONS TO VISIBILITY.


CITY           SKY/WX    TMP DP  RH WIND       PRES   REMARKS
WILLISTON      LGT RAIN  47  43  86 E3        30.16R
MINOT          LGT RAIN  49  46  90 NW7       30.10S
MINOT AFB      LGT RAIN  49  45  86 N7        30.10S
BISMARCK       LGT RAIN  50  48  93 N14       30.03F
DICKINSON      RAIN      45  44  97 N8        30.06S FOG
GARRISON         N/A     47  45  93 N6        30.08F
HETTINGER ARPT LGT RAIN  45  43  93 N10       30.06S
JAMESTOWN      RAIN      53  51  93 E7        30.00F FOG
CARRINGTON     LGT RAIN  52  48  87 N10       30.06R
HAZEN          MOCLDY    48  46  93 N8        30.09F
LINTON         CLOUDY    52  50  93 N9        30.01R
MANDAN         CLOUDY    48  48 100 N13G20    30.04F
RUGBY          MOCLDY    50  46  87 N6        30.09S
STANLEY        LGT RAIN  45  45 100 N7        30.15S
TIOGA          CLOUDY    45  45 100 E5        30.15S
WATFORD CITY   CLOUDY    45  45 100 N6        30.13S
$$

CITY           SKY/WX    TMP DP  RH WIND       PRES   REMARKS
GRAND FORKS    CLOUDY    58  50  75 N13       30.03F
GRAND FORKS AF CLOUDY    55  48  76 NE15      30.02F
DEVILS LAKE    CLOUDY    52  45  77 NE12      30.06F
FARGO          RAIN      56  54  93 NE8       30.01F
CANDO          CLOUDY    50  50 100 N10G16    30.09F
CAVALIER       MOCLDY    54  48  82 N8        30.07F
GRAFTON        CLOUDY    55  48  76 N13       30.07F
GWINNER        CLOUDY    54  54 100 E10       29.97F
LANGDON        CLOUDY    52  50  93 N9        30.10F
ROLLA          CLOUDY    48  46  93 NE7       30.11F
WALHALLA       FAIR     N/A N/A N/A N8        30.09F
$$

CITY           SKY/WX    TMP DP  RH WIND       PRES   REMARKS
ABERDEEN       CLOUDY    54  54 100 NE10      29.95R
MOBRIDGE       CLOUDY    54  51  90 CALM      30.01R
BUFFALO          N/A     45  44  97 NE10      29.99S
RAPID CITY     LGT RAIN  46  45  93 N10       30.04F FOG
GLASGOW        CLOUDY    48  38  68 SE5       30.14R
SIDNEY         LGT RAIN  46  44  93 N3        30.16R
WOLF POINT     CLOUDY    49  40  71 CALM      30.15R
GLENDIVE       LGT RAIN  44  42  93 N6        30.14S
MILES CITY     LGT RAIN  43  41  93 N7        30.12R
BAKER          LGT RAIN  43  42  97 N8        30.08F
$$

CITY           SKY/WX    TMP DP  RH WIND       PRES   REMARKS
BILLINGS       CLOUDY    45  39  79 CALM      30.12R
GREAT FALLS    CLEAR     43  32  65 S6        30.08S
REGINA         CLOUDY    46  36  66 E5        30.16R
ESTEVAN        CLOUDY    46  39  76 N5        30.15R
$$





USA.gov is the U.S. government's official web portal to all federal, state and local government web resources and services.